This is the latest recevied weather packets stored in our database for station/object N4NVD-13. If no packets are shown the sender has not sent any weather packets the latest 10 day(s).
| Time | Temp. | Humidity | Pressure | Rain* | Wind** | Luminosity | Snow |
|---|---|---|---|---|---|---|---|
| 1777507054 | 18.33° C | 99% | 1009.7 hPa | 0 mm | - | 12 W/m² | - |
| 1777506752 | 18.89° C | 99% | 1009.9 hPa | 0 mm | - | 17 W/m² | - |
| 1777506448 | 18.89° C | 99% | 1010 hPa | 0 mm | - | 20 W/m² | - |
| 1777506144 | 18.89° C | 99% | 1010 hPa | 0 mm | - | 17 W/m² | - |
| 1777505840 | 18.89° C | 99% | 1010 hPa | 0 mm | - | 22 W/m² | - |
| 1777505536 | 18.89° C | 98% | 1009.9 hPa | 0 mm | - | 22 W/m² | - |
| 1777505233 | 18.89° C | 98% | 1009.9 hPa | 0 mm | - | 24 W/m² | - |
| 1777504930 | 19.44° C | 98% | 1009.7 hPa | 0 mm | - | 27 W/m² | - |
| 1777504627 | 19.44° C | 98% | 1009.8 hPa | 0 mm | - | 28 W/m² | - |
| 1777504323 | 19.44° C | 98% | 1009.9 hPa | 0 mm | - | 24 W/m² | - |
| 1777504018 | 19.44° C | 97% | 1009.7 hPa | 0 mm | - | 26 W/m² | - |
| 1777503715 | 20° C | 97% | 1009.5 hPa | 0 mm | - | 34 W/m² | - |
| 1777503412 | 19.44° C | 97% | 1009.6 hPa | 0 mm | - | 51 W/m² | - |
| 1777503107 | 19.44° C | 97% | 1009.5 hPa | 0 mm | - | 29 W/m² | - |
| 1777502805 | 19.44° C | 97% | 1009.5 hPa | 0 mm | - | 53 W/m² | - |
| 1777502502 | 19.44° C | 97% | 1009.6 hPa | 0 mm | - | 57 W/m² | - |
| 1777502199 | 20° C | 98% | 1009.1 hPa | 0 mm | - | 72 W/m² | - |
| 1777501897 | 19.44° C | 98% | 1009.1 hPa | 0 mm | - | 70 W/m² | - |
| 1777501593 | 19.44° C | 98% | 1009.4 hPa | 0 mm | - | 55 W/m² | - |
| 1777501290 | 19.44° C | 98% | 1009.3 hPa | 0 mm | - | 50 W/m² | - |
| 1777500989 | 20° C | 98% | 1009.6 hPa | 0 mm | - | 61 W/m² | - |
| 1777500686 | 20° C | 98% | 1009.3 hPa | 0 mm | - | 53 W/m² | - |
| 1777500382 | 20° C | 98% | 1009.4 hPa | 0 mm | - | 56 W/m² | - |
| 1777500078 | 20° C | 98% | 1009.7 hPa | 0 mm | - | 64 W/m² | - |
| 1777499775 | 20° C | 98% | 1009.6 hPa | 0 mm | - | 45 W/m² | - |
* Rain latest hour (hover to see other rain measurements)
** Current wind speed in m/s (hover to see current wind gust speed)